User: anonymous   Login
Location: Klickitat County Star Party
(45.8642°N, 120.6771°W)
Time: 12:16:13
(UTC-08:00)
Language:

NOAA 19 - Orbit

View from above orbital plane
View from above orbital plane
View from above satellite
View from above satellite

Ground track
Ground track

The orbit data is extracted from the following two-line orbital elements,

1 33591U 09005A   19326.53302182  .00000005  00000-0  28169-4 0  9995
2 33591  99.1905 321.5333 0013195 301.1235  58.8641 14.12384137556046
Epoch (UTC): 22 November 2019 12:47:33
Eccentricity: 0.0013195
inclination: 99.1905°
perigee height: 841 km
apogee height: 861 km
right ascension of ascending node: 321.5333°
argument of perigee: 301.1235°
revolutions per day: 14.12384137
mean anomaly at epoch: 58.8641°
orbit number at epoch: 55604

The dashed part of the orbit path shows where the satellite is in the earth's shadow,  

DLR